Location: Solon
(41.3849°N, 81.4081°W)
Time: 15:59:26
(UTC-04:00)

CZ-2C R/B - Visible Passes

Search period start: 23 June 2018 00:00
Search period end: 03 July 2018 00:00
Orbit: 704 x 908 km, 98.2° (Epoch: 22 June)

Date Brightness Start Highest point End Pass type
(mag) Time Alt. Az. Time Alt. Az. Time Alt. Az.
23 Jun 5.4 21:41:56 10° ENE 21:43:28 11° ENE 21:45:01 10° NE visible
23 Jun 3.4 23:19:33 32° SSE 23:22:19 70° ENE 23:28:02 10° N visible
24 Jun 5.3 01:00:37 15° WSW 01:02:36 17° W 01:06:15 10° NW visible
24 Jun 3.9 22:54:27 23° SE 22:57:38 44° ENE 23:03:01 10° N visible
25 Jun 4.7 00:35:31 23° SW 00:37:34 28° W 00:42:25 10° NW visible
25 Jun 4.5 22:29:21 15° ESE 22:33:01 28° ENE 22:37:47 10° N visible
26 Jun 4.0 00:10:25 31° SSW 00:12:36 44° W 00:18:04 10° NNW visible
26 Jun 5.0 22:04:43 10° ESE 22:08:30 18° ENE 22:12:13 10° NNE visible
26 Jun 3.4 23:45:19 37° S 23:47:45 72° WSW 23:53:27 10° NNW visible
27 Jun 5.4 21:42:26 10° ENE 21:44:04 11° ENE 21:45:41 10° NE visible
27 Jun 3.3 23:20:14 33° SSE 23:22:57 72° ENE 23:28:38 10° N visible
28 Jun 5.3 01:01:17 14° WSW 01:03:15 16° W 01:06:44 10° NW visible
28 Jun 3.8 22:55:08 24° SE 22:58:16 45° ENE 23:03:36 10° N visible
29 Jun 4.8 00:36:12 22° SW 00:38:12 27° W 00:42:57 10° NW visible
29 Jun 4.5 22:30:03 16° ESE 22:33:38 29° ENE 22:38:22 10° N visible
30 Jun 4.1 00:11:07 31° SW 00:13:15 43° W 00:18:37 10° NNW visible
30 Jun 5.0 22:05:19 10° ESE 22:09:05 18° ENE 22:12:48 10° NNE visible
30 Jun 3.4 23:46:02 37° S 23:48:22 70° WSW 23:54:00 10° NNW visible
01 Jul 5.4 21:42:59 10° ENE 21:44:39 11° ENE 21:46:18 10° NE visible
01 Jul 3.3 23:20:57 33° SSE 23:23:36 74° ENE 23:29:11 10° N visible
02 Jul 5.3 01:02:01 13° WSW 01:03:53 16° W 01:07:09 10° NW visible
02 Jul 3.8 22:55:52 25° SE 22:58:53 46° ENE 23:04:09 10° N visible
